FDX19N EDDK-EDDP

Flight info

Callsign FDX19N
Flight time N/A
Altitude 23000
Route PODIP9B PODIP Y867 PELUN DCT ERSET N858 MAXOT T212 LASTO T956 GOXLI GOXLI1R
Aircraft B77L/H-SDE1E2E3FGHIJ2J3J4J5M1RWXY/LB1D1

Departure

Time 2026-05-05 20:43
Airport Cologne Bonn Airport (EDDK)

Arrival

Time N/A
Airport Leipzig/Halle Airport (EDDP)
Time Latitude Longitude Altitude Speed Heading
2026-05-05 20:12 50.87602 7.12768 253 ft 0 kts 227°
2026-05-05 20:32 50.87608 7.12779 253 ft 2 kts 229°
2026-05-05 20:33 50.87618 7.12797 253 ft 2 kts 227°
2026-05-05 20:33 50.87627 7.12812 253 ft 0 kts 227°
2026-05-05 20:33 50.87635 7.12825 253 ft 2 kts 214°
2026-05-05 20:33 50.87648 7.12835 254 ft 2 kts 191°
2026-05-05 20:34 50.87662 7.12836 254 ft 2 kts 172°
2026-05-05 20:34 50.87677 7.12830 254 ft 2 kts 151°
2026-05-05 20:34 50.87685 7.12821 254 ft 0 kts 137°
2026-05-05 20:34 50.87688 7.12817 254 ft 0 kts 136°
2026-05-05 20:36 50.87677 7.12833 254 ft 5 kts 137°
2026-05-05 20:37 50.87631 7.12900 253 ft 11 kts 137°
2026-05-05 20:37 50.87558 7.13005 252 ft 16 kts 137°
2026-05-05 20:37 50.87468 7.13134 250 ft 18 kts 138°
2026-05-05 20:37 50.87369 7.13277 250 ft 19 kts 137°
2026-05-05 20:38 50.87270 7.13420 250 ft 18 kts 137°
2026-05-05 20:38 50.87178 7.13553 252 ft 16 kts 137°
2026-05-05 20:38 50.87100 7.13666 254 ft 14 kts 137°
2026-05-05 20:38 50.87010 7.13797 256 ft 22 kts 137°
2026-05-05 20:39 50.86906 7.13948 259 ft 16 kts 135°
2026-05-05 20:39 50.86824 7.14063 262 ft 15 kts 137°
2026-05-05 20:39 50.86732 7.14152 263 ft 17 kts 147°
2026-05-05 20:39 50.86628 7.14280 267 ft 20 kts 135°
2026-05-05 20:40 50.86518 7.14445 272 ft 23 kts 136°
2026-05-05 20:40 50.86393 7.14619 278 ft 23 kts 141°
2026-05-05 20:40 50.86278 7.14793 284 ft 21 kts 136°
2026-05-05 20:40 50.86174 7.14949 287 ft 20 kts 138°
2026-05-05 20:41 50.86069 7.15113 287 ft 21 kts 117°
2026-05-05 20:41 50.86082 7.15309 289 ft 10 kts 43°
2026-05-05 20:41 50.86153 7.15344 290 ft 11 kts 359°
2026-05-05 20:41 50.86238 7.15334 289 ft 13 kts 352°
2026-05-05 20:42 50.86334 7.15300 287 ft 14 kts 346°
2026-05-05 20:42 50.86430 7.15246 285 ft 17 kts 326°
2026-05-05 20:42 50.86724 7.14821 276 ft 108 kts 318°
2026-05-05 20:42 50.87483 7.13722 618 ft 169 kts 318°
2026-05-05 20:43 50.88291 7.12536 1986 ft 164 kts 320°
2026-05-05 20:43 50.89117 7.11330 3117 ft 175 kts 321°
2026-05-05 20:43 50.90022 7.10015 4284 ft 184 kts 320°
2026-05-05 20:43 50.90927 7.08697 5581 ft 184 kts 319°
2026-05-05 20:44 50.91844 7.07375 6764 ft 181 kts 323°
2026-05-05 20:44 50.92984 7.06606 7264 ft 190 kts 360°
2026-05-05 20:44 50.94269 7.07332 7553 ft 210 kts 44°
2026-05-05 20:44 50.95021 7.09390 7942 ft 229 kts 68°
2026-05-05 20:45 50.96183 7.14488 9066 ft 263 kts 69°
2026-05-05 20:45 50.96812 7.17288 9656 ft 280 kts 70°
2026-05-05 20:45 50.97473 7.20233 10364 ft 292 kts 70°
2026-05-05 20:46 50.98172 7.23353 10959 ft 309 kts 70°
2026-05-05 20:46 50.98903 7.26622 11590 ft 325 kts 70°
2026-05-05 20:46 50.99674 7.30078 12213 ft 341 kts 70°
2026-05-05 20:46 51.00471 7.33660 12859 ft 356 kts 71°
2026-05-05 20:47 51.01294 7.37439 13624 ft 367 kts 74°
2026-05-05 20:47 51.01698 7.41446 14507 ft 372 kts 88°
2026-05-05 20:47 51.01571 7.45498 15450 ft 375 kts 98°
2026-05-05 20:47 51.00981 7.49547 16398 ft 378 kts 108°
2026-05-05 20:48 51.00148 7.53427 17370 ft 380 kts 109°
2026-05-05 20:48 50.99293 7.57416 18302 ft 382 kts 109°
2026-05-05 20:48 50.98460 7.61371 19154 ft 387 kts 108°
2026-05-05 20:48 50.97621 7.65435 19956 ft 392 kts 109°
2026-05-05 20:49 50.96777 7.69581 20691 ft 398 kts 109°
2026-05-05 20:49 50.96024 7.73818 21463 ft 404 kts 103°
2026-05-05 20:49 50.95695 7.78233 22213 ft 411 kts 93°
2026-05-05 20:49 50.95832 7.82761 22724 ft 415 kts 84°
2026-05-05 20:50 50.96432 7.87182 22800 ft 415 kts 75°
2026-05-05 20:50 50.97517 7.91427 22779 ft 414 kts 64°
2026-05-05 20:50 50.98977 7.95366 22782 ft 417 kts 60°
2026-05-05 20:50 51.00494 7.99266 22789 ft 417 kts 60°
2026-05-05 20:51 51.02005 8.03205 22786 ft 418 kts 60°
2026-05-05 20:51 51.03497 8.07147 22784 ft 418 kts 61°
2026-05-05 20:51 51.04969 8.11073 22789 ft 418 kts 61°
2026-05-05 20:51 51.06434 8.15008 22786 ft 418 kts 61°
2026-05-05 20:52 51.07912 8.18999 22787 ft 417 kts 62°
2026-05-05 20:52 51.09372 8.22961 22786 ft 418 kts 62°
2026-05-05 20:52 51.10832 8.26949 22786 ft 418 kts 62°
2026-05-05 20:52 51.12283 8.30935 22788 ft 419 kts 62°
2026-05-05 20:53 51.13736 8.34935 22787 ft 418 kts 62°
2026-05-05 20:53 51.15190 8.38948 22790 ft 419 kts 62°
2026-05-05 20:53 51.16634 8.42944 22785 ft 419 kts 62°
2026-05-05 20:53 51.17878 8.47075 22784 ft 417 kts 71°
2026-05-05 20:54 51.18649 8.51491 22798 ft 416 kts 81°
2026-05-05 20:54 51.18922 8.56090 22791 ft 420 kts 92°
2026-05-05 20:54 51.18667 8.60805 22789 ft 436 kts 102°
2026-05-05 20:54 51.17968 8.65565 22808 ft 453 kts 107°
2026-05-05 20:55 51.17160 8.70442 22785 ft 462 kts 107°
2026-05-05 20:55 51.16328 8.75400 22800 ft 463 kts 107°
2026-05-05 20:55 51.15498 8.80338 22796 ft 462 kts 107°
2026-05-05 20:55 51.14663 8.85282 22793 ft 462 kts 107°
2026-05-05 20:56 51.13831 8.90195 22792 ft 462 kts 107°
2026-05-05 20:56 51.13005 8.95052 22787 ft 461 kts 107°
2026-05-05 20:56 51.12165 8.99978 22779 ft 461 kts 107°
2026-05-05 20:56 51.11321 9.04913 22799 ft 461 kts 107°
2026-05-05 20:57 51.10479 9.09823 22790 ft 461 kts 107°
2026-05-05 20:57 51.09636 9.14723 22791 ft 461 kts 107°